Location: Mount Lemmon
(32.4432°N, 110.7577°W)
Time: 15:09:34
(UTC-07:00)

Tiangong 1 - Visible Passes

Search period start: 24 November 2017 00:00
Search period end: 04 December 2017 00:00
Orbit: 283 x 307 km, 42.8° (Epoch: 24 November)

Date Brightness Start Highest point End Pass type
(mag) Time Alt. Az. Time Alt. Az. Time Alt. Az.
24 Nov 1.9 18:44:02 10° W 18:46:16 31° NNW 18:46:16 31° NNW visible
25 Nov 3.0 18:51:04 10° WNW 18:52:30 17° NW 18:52:30 17° NW visible
26 Nov 3.6 18:58:16 10° NW 18:58:32 11° NW 18:58:32 11° NW visible
29 Nov 3.2 17:41:53 10° NW 17:42:52 12° NNW 17:43:51 10° N visible
03 Dec 2.9 18:05:05 10° NNW 18:06:13 12° NNE 18:06:48 11° NNE visible
